Notices

Please take our survey and provide feedback: https://eccc.sondage-survey.ca/f/LanguageSelection.aspx?s=442ca660-fcf1-47c0-95a9-59707d6fd709

Please note that the IDF dataset is available through this link: Intensity-Duration-Frequency (IDF) Files .

Hourly Data Report for November 04, 2020

SHEARWATER RCS
NOVA SCOTIA
Current Station Operator: ECCC - MSC

44°37'47.000" N
63°30'48.000" W
24.00 m
8205092
71264
AAW

Download Data

Hourly Data (November 2020)
Hourly Data Report for November 4, 2020
TIME
LST
Temp Definition
°C
Dew Point Definition
°C
Rel Hum Definition
%
Precip. Amount Definition
mm

Wind Dir Definition
10's deg

Wind Spd Definition
km/h
Visibility Definition
km
Stn Press Definition
kPa
Hmdx Definition


Wind Chill Definition


Weather Definition


00:00 -3.0 -7.8 70 0.0 32 13   101.78   -8 LegendNANA
01:00 -3.4 -8.2 69 0.0 31 11   101.92   -8 LegendNANA
02:00 -3.2 -8.3 68 0.0 31 12   102.03   -8 LegendNANA
03:00 -3.0 -7.9 69 0.0 30 12   102.15   -7 LegendNANA
04:00 -3.3 -9.0 65 0.0 31 18   102.28   -9 LegendNANA
05:00 -4.1 -9.0 69 0.0 31 10   102.47   -8 LegendNANA
06:00 -4.1 -9.3 67 0.0 31 14   102.60   -9 LegendNANA
07:00 -4.4 -9.2 69 0.2 31 14   102.72   -10 LegendNANA
08:00 -3.7 -8.4 70 0.0 32 12   102.88   -8 LegendNANA
09:00 -2.7 -8.4 65 0.0 31 14   102.98   -8 LegendNANA
10:00 -1.5 -8.8 57 0.3 32 16   103.02   -6 LegendNANA
11:00 -0.2 -8.4 54 0.0 31 12   103.08   -4 LegendNANA
12:00 0.6 -8.3 51 0.0 33 9   103.08     LegendNANA
13:00 1.3 -8.4 48 0.0 35 7   103.05     LegendNANA
14:00 2.0 -8.7 45 0.0 27 5   103.09     LegendNANA
15:00 2.2 -9.3 42 0.0 30 4   103.15     LegendNANA
16:00 1.5 -9.7 43 0.0 29 2   103.20     LegendNANA
17:00 1.1 -8.7 48 0.0 20 4   103.27     LegendNANA
18:00 1.1 -6.8 55 0.0 23 8   103.31     LegendNANA
19:00 1.1 -6.4 57 0.0 22 8   103.36     LegendNANA
20:00 1.3 -6.8 55 0.0 20 5   103.37     LegendNANA
21:00 1.7 -7.4 51 0.0 20 6   103.42     LegendNANA
22:00 1.9 -6.4 54 0.0 17 4   103.41     LegendNANA
23:00 2.6 -5.9 53 0.0 18 5   103.42     LegendNANA

Notes on Data Quality.

Legend

  • E = Estimated
  • M = Missing
  • NA = Not Available*
  • [empty] = Indicates an unobserved value
Date modified: